TimeCDT,TemperatureF,Dew PointF,Humidity,Sea Level PressureIn,VisibilityMPH,Wind Direction,Wind SpeedMPH,Gust SpeedMPH,PrecipitationIn,Events,Conditions,WindDirDegrees,DateUTC
12:53 AM,86.0,69.1,57,29.96,10.0,SSE,11.5,-,N/A,,Partly Cloudy,150,2013-07-08 05:53:00
1:53 AM,84.0,69.1,61,29.97,10.0,SSE,10.4,-,N/A,,Mostly Cloudy,150,2013-07-08 06:53:00
2:53 AM,82.9,70.0,65,29.97,10.0,SE,9.2,-,N/A,,Scattered Clouds,140,2013-07-08 07:53:00
3:53 AM,82.0,70.0,67,29.98,10.0,SSE,10.4,-,N/A,,Partly Cloudy,160,2013-07-08 08:53:00
4:53 AM,81.0,70.0,69,30.00,10.0,SSE,11.5,-,N/A,,Scattered Clouds,160,2013-07-08 09:53:00
5:53 AM,80.1,71.1,74,30.01,10.0,SSE,12.7,-,N/A,,Scattered Clouds,150,2013-07-08 10:53:00
6:53 AM,79.0,71.1,77,30.04,10.0,South,9.2,-,N/A,,Scattered Clouds,170,2013-07-08 11:53:00
7:53 AM,80.1,71.1,74,30.05,10.0,South,12.7,-,N/A,,Scattered Clouds,170,2013-07-08 12:53:00
8:30 AM,80.6,71.6,74,30.08,10.0,South,9.2,-,N/A,,Mostly Cloudy,170,2013-07-08 13:30:00
8:53 AM,82.9,72.0,69,30.07,10.0,SSE,11.5,-,N/A,,Mostly Cloudy,160,2013-07-08 13:53:00
9:53 AM,84.9,72.0,65,30.07,10.0,SSW,5.8,-,N/A,,Mostly Cloudy,210,2013-07-08 14:53:00
10:20 AM,86.0,71.6,62,30.08,10.0,SSW,6.9,-,N/A,,Mostly Cloudy,210,2013-07-08 15:20:00
10:53 AM,88.0,72.0,59,30.06,10.0,SSW,4.6,-,N/A,,Mostly Cloudy,210,2013-07-08 15:53:00
11:53 AM,89.1,71.1,55,30.06,10.0,SSW,8.1,-,N/A,,Mostly Cloudy,210,2013-07-08 16:53:00
12:53 PM,93.0,70.0,47,30.04,10.0,South,4.6,16.1,N/A,,Mostly Cloudy,170,2013-07-08 17:53:00
1:53 PM,93.0,68.0,44,30.03,10.0,SSE,8.1,16.1,N/A,,Mostly Cloudy,160,2013-07-08 18:53:00
2:53 PM,96.1,66.9,38,30.01,10.0,South,11.5,20.7,N/A,,Mostly Cloudy,170,2013-07-08 19:53:00
3:53 PM,95.0,66.0,38,29.99,10.0,South,5.8,-,N/A,,Scattered Clouds,180,2013-07-08 20:53:00
4:53 PM,96.1,64.9,36,29.98,10.0,SSE,11.5,-,N/A,,Scattered Clouds,150,2013-07-08 21:53:00
5:53 PM,96.1,69.1,41,29.97,10.0,South,15.0,21.9,N/A,,Scattered Clouds,170,2013-07-08 22:53:00
6:53 PM,93.9,69.1,44,29.97,10.0,South,15.0,19.6,N/A,,Scattered Clouds,190,2013-07-08 23:53:00
7:53 PM,91.9,66.9,44,29.98,10.0,South,12.7,-,N/A,,Scattered Clouds,180,2013-07-09 00:53:00
8:53 PM,90.0,64.9,43,29.99,10.0,South,10.4,-,N/A,,Scattered Clouds,180,2013-07-09 01:53:00
9:53 PM,89.1,66.9,48,30.01,10.0,South,10.4,-,N/A,,Partly Cloudy,170,2013-07-09 02:53:00
10:53 PM,88.0,66.0,48,30.04,10.0,South,9.2,-,N/A,,Scattered Clouds,190,2013-07-09 03:53:00
11:53 PM,87.1,62.1,43,30.05,10.0,South,6.9,-,N/A,,Partly Cloudy,190,2013-07-09 04:53:00